• In Deutschland
  • Länderverzeichnis
  • Für 7 Tage
  • Wassertemperatur
  • Satellitenkarten
  • Wetterkarte
  • Widgets
  • user-avatar
    Anmelden

    Stündliche Wetter Karben

    Heute, 12 Dezember, Dienstag

    Zeit Temperatur Niederschläge Wind Luftdruck Luftfeuchtigkeit
    00:00 +5°C° 0,1 mm 5 m/S 729 mmHg 82%
    01:00 +5°C° 0 mm 5 m/S 729 mmHg 85%
    02:00 +3°C° 0,2 mm 6 m/S 731 mmHg 83%
    03:00 +2°C° 0,2 mm 6 m/S 732 mmHg 82%
    04:00 0°C° 0,2 mm 7 m/S 733 mmHg 81%
    05:00 0°C° 0 mm 7 m/S 735 mmHg 81%
    06:00 +1°C° 0 mm 6 m/S 737 mmHg 81%
    07:00 -1°C° 0 mm 6 m/S 738 mmHg 81%
    08:00 +1°C° 0 mm 6 m/S 740 mmHg 80%
    09:00 +1°C° 0 mm 5 m/S 741 mmHg 79%
    10:00 +1°C° 0 mm 5 m/S 743 mmHg 79%
    11:00 +1°C° 0 mm 5 m/S 744 mmHg 78%
    12:00 +2°C° 0 mm 5 m/S 745 mmHg 77%
    13:00 +2°C° 0 mm 5 m/S 745 mmHg 76%
    14:00 +2°C° 0 mm 5 m/S 746 mmHg 77%
    15:00 +1°C° 0 mm 5 m/S 747 mmHg 79%
    16:00 +1°C° 0 mm 4 m/S 747 mmHg 80%
    17:00 +1°C° 0 mm 4 m/S 748 mmHg 81%
    18:00 +1°C° 0 mm 4 m/S 749 mmHg 81%
    19:00 +1°C° 0 mm 3 m/S 749 mmHg 82%
    20:00 +1°C° 0 mm 3 m/S 750 mmHg 83%
    21:00 +1°C° 0 mm 3 m/S 751 mmHg 84%
    22:00 0°C° 0 mm 3 m/S 751 mmHg 85%
    23:00 +1°C° 0 mm 2 m/S 751 mmHg 87%

    Morgen, 13 Dezember, Mittwoch

    Zeit Temperatur Niederschläge Wind Luftdruck Luftfeuchtigkeit
    00:00 +1°C° 0 mm 2 m/S 751 mmHg 89%
    01:00 -1°C° 0 mm 2 m/S 752 mmHg 91%
    02:00 -1°C° 0 mm 3 m/S 751 mmHg 91%
    03:00 -1°C° 0 mm 3 m/S 751 mmHg 92%
    04:00 -1°C° 0 mm 3 m/S 751 mmHg 92%
    05:00 -1°C° 0 mm 4 m/S 751 mmHg 90%
    06:00 -1°C° 0 mm 4 m/S 750 mmHg 88%
    07:00 0°C° 0 mm 5 m/S 750 mmHg 86%
    08:00 0°C° 0 mm 5 m/S 749 mmHg 84%
    09:00 -1°C° 0 mm 6 m/S 749 mmHg 82%
    10:00 +1°C° 0 mm 6 m/S 748 mmHg 79%
    11:00 +1°C° 0,4 mm 6 m/S 747 mmHg 79%
    12:00 +2°C° 0,4 mm 7 m/S 747 mmHg 79%
    13:00 +2°C° 0,4 mm 7 m/S 746 mmHg 78%
    14:00 +2°C° 0,6 mm 7 m/S 745 mmHg 80%
    15:00 +2°C° 0,6 mm 6 m/S 744 mmHg 82%
    16:00 +2°C° 0,6 mm 6 m/S 743 mmHg 84%
    17:00 +3°C° 0,7 mm 6 m/S 742 mmHg 85%
    18:00 +3°C° 0,7 mm 6 m/S 742 mmHg 86%
    19:00 +3°C° 0,7 mm 6 m/S 741 mmHg 87%
    20:00 +3°C° 0,2 mm 6 m/S 740 mmHg 86%
    21:00 +4°C° 0,2 mm 6 m/S 739 mmHg 86%
    22:00 +4°C° 0,2 mm 7 m/S 738 mmHg 86%
    23:00 +5°C° 0,6 mm 7 m/S 737 mmHg 85%

    übermorgen, 14 Dezember, Donnerstag

    Zeit Temperatur Niederschläge Wind Luftdruck Luftfeuchtigkeit
    00:00 +5°C° 0,6 mm 7 m/S 737 mmHg 85%
    01:00 +5°C° 0,6 mm 7 m/S 737 mmHg 85%
    02:00 +5°C° 0,3 mm 6 m/S 737 mmHg 83%
    03:00 +4°C° 0,3 mm 6 m/S 736 mmHg 82%
    04:00 +3°C° 0,3 mm 5 m/S 736 mmHg 80%
    05:00 +3°C° 0,3 mm 6 m/S 736 mmHg 77%
    06:00 +3°C° 0,3 mm 6 m/S 737 mmHg 73%
    07:00 +3°C° 0,3 mm 7 m/S 737 mmHg 69%
    08:00 +2°C° 0 mm 7 m/S 738 mmHg 68%
    09:00 +2°C° 0 mm 6 m/S 739 mmHg 66%
    10:00 +1°C° 0 mm 6 m/S 740 mmHg 65%
    11:00 +2°C° 0 mm 5 m/S 740 mmHg 65%
    12:00 +3°C° 0 mm 5 m/S 739 mmHg 66%
    13:00 +3°C° 0 mm 5 m/S 739 mmHg 66%
    14:00 +4°C° 0,3 mm 4 m/S 738 mmHg 72%
    15:00 +4°C° 0,3 mm 4 m/S 736 mmHg 77%
    16:00 +3°C° 0,3 mm 4 m/S 735 mmHg 82%
    17:00 +3°C° 0,7 mm 4 m/S 734 mmHg 85%
    18:00 +3°C° 0,7 mm 4 m/S 733 mmHg 87%
    19:00 +3°C° 0,7 mm 3 m/S 733 mmHg 90%
    20:00 +3°C° 0,2 mm 4 m/S 733 mmHg 86%
    21:00 +2°C° 0,2 mm 5 m/S 733 mmHg 82%
    22:00 +2°C° 0,2 mm 6 m/S 733 mmHg 78%
    23:00 +1°C° 0 mm 6 m/S 734 mmHg 79%

    15 Dezember, Freitag

    Zeit Temperatur Niederschläge Wind Luftdruck Luftfeuchtigkeit
    00:00 +1°C° 0 mm 5 m/S 735 mmHg 80%
    01:00 0°C° 0 mm 5 m/S 736 mmHg 81%
    02:00 +1°C° 0,1 mm 4 m/S 736 mmHg 81%
    03:00 +1°C° 0,1 mm 4 m/S 736 mmHg 82%
    04:00 +1°C° 0,1 mm 4 m/S 736 mmHg 82%
    05:00 +1°C° 0,1 mm 4 m/S 736 mmHg 83%
    06:00 +1°C° 0,1 mm 5 m/S 736 mmHg 83%
    07:00 +1°C° 0,1 mm 5 m/S 735 mmHg 84%
    08:00 +1°C° 0,3 mm 5 m/S 735 mmHg 84%
    09:00 +1°C° 0,3 mm 6 m/S 735 mmHg 83%
    10:00 +1°C° 0,3 mm 6 m/S 736 mmHg 83%
    11:00 +2°C° 0,7 mm 6 m/S 735 mmHg 83%
    12:00 +2°C° 0,7 mm 6 m/S 735 mmHg 83%
    13:00 +2°C° 0,7 mm 6 m/S 735 mmHg 82%
    14:00 +2°C° 0,6 mm 5 m/S 736 mmHg 84%
    15:00 +2°C° 0,6 mm 5 m/S 736 mmHg 85%
    16:00 +3°C° 0,6 mm 4 m/S 736 mmHg 87%
    17:00 +1°C° 0,1 mm 4 m/S 737 mmHg 87%
    18:00 +2°C° 0,1 mm 3 m/S 737 mmHg 87%
    19:00 +1°C° 0,1 mm 3 m/S 738 mmHg 87%
    20:00 +1°C° 0,1 mm 3 m/S 739 mmHg 89%
    21:00 +2°C° 0,1 mm 2 m/S 739 mmHg 90%
    22:00 +1°C° 0,1 mm 2 m/S 740 mmHg 91%
    23:00 +1°C° 0 mm 2 m/S 741 mmHg 91%

    16 Dezember, Samstag

    Zeit Temperatur Niederschläge Wind Luftdruck Luftfeuchtigkeit
    00:00 +1°C° 0 mm 2 m/S 741 mmHg 91%
    01:00 0°C° 0 mm 3 m/S 742 mmHg 91%
    02:00 0°C° 0 mm 3 m/S 742 mmHg 91%
    03:00 0°C° 0 mm 3 m/S 743 mmHg 91%
    04:00 0°C° 0 mm 3 m/S 743 mmHg 90%
    05:00 0°C° 0,1 mm 3 m/S 744 mmHg 90%
    06:00 +1°C° 0,1 mm 3 m/S 744 mmHg 89%
    07:00 +1°C° 0,1 mm 3 m/S 745 mmHg 89%
    08:00 +1°C° 0,1 mm 3 m/S 746 mmHg 89%
    09:00 0°C° 0,1 mm 4 m/S 746 mmHg 89%
    10:00 +1°C° 0,1 mm 4 m/S 746 mmHg 89%
    11:00 +1°C° 0,2 mm 4 m/S 747 mmHg 88%
    12:00 +1°C° 0,2 mm 4 m/S 747 mmHg 87%
    13:00 +1°C° 0,2 mm 5 m/S 747 mmHg 87%
    14:00 +1°C° 0,3 mm 4 m/S 747 mmHg 87%
    15:00 +1°C° 0,3 mm 4 m/S 747 mmHg 87%
    16:00 +2°C° 0,3 mm 3 m/S 747 mmHg 87%
    17:00 +1°C° 0,1 mm 3 m/S 748 mmHg 88%
    18:00 +1°C° 0,1 mm 3 m/S 748 mmHg 89%
    19:00 +1°C° 0,1 mm 3 m/S 749 mmHg 89%
    20:00 0°C° 0 mm 3 m/S 749 mmHg 90%
    21:00 0°C° 0 mm 3 m/S 750 mmHg 90%
    22:00 0°C° 0 mm 3 m/S 750 mmHg 91%
    23:00 -1°C° 0 mm 2 m/S 750 mmHg 91%

    17 Dezember, Sonntag

    Zeit Temperatur Niederschläge Wind Luftdruck Luftfeuchtigkeit
    00:00 -1°C° 0 mm 2 m/S 751 mmHg 91%
    01:00 -1°C° 0 mm 2 m/S 751 mmHg 91%
    02:00 -1°C° 0 mm 2 m/S 752 mmHg 91%
    03:00 -1°C° 0 mm 2 m/S 752 mmHg 91%
    04:00 -1°C° 0 mm 2 m/S 752 mmHg 91%
    05:00 -1°C° 0 mm 2 m/S 753 mmHg 91%
    06:00 -1°C° 0 mm 2 m/S 753 mmHg 91%
    07:00 -1°C° 0 mm 2 m/S 753 mmHg 91%
    08:00 -1°C° 0 mm 3 m/S 754 mmHg 90%
    09:00 0°C° 0 mm 3 m/S 755 mmHg 90%
    10:00 0°C° 0 mm 3 m/S 755 mmHg 89%
    11:00 0°C° 0 mm 3 m/S 755 mmHg 88%
    12:00 +1°C° 0 mm 3 m/S 755 mmHg 87%
    13:00 +1°C° 0 mm 3 m/S 756 mmHg 86%
    14:00 +1°C° 0 mm 3 m/S 756 mmHg 87%
    15:00 +1°C° 0 mm 3 m/S 756 mmHg 87%
    16:00 +2°C° 0 mm 2 m/S 757 mmHg 88%
    17:00 +2°C° 0,1 mm 2 m/S 757 mmHg 89%
    18:00 +1°C° 0,1 mm 3 m/S 757 mmHg 90%
    19:00 0°C° 0,1 mm 3 m/S 758 mmHg 91%
    20:00 0°C° 0,3 mm 3 m/S 758 mmHg 91%
    21:00 0°C° 0,3 mm 3 m/S 758 mmHg 91%
    22:00 0°C° 0,3 mm 3 m/S 758 mmHg 91%
    23:00 0°C° 0,1 mm 3 m/S 758 mmHg 91%
    Mehr zeigen